NORTHERN QUEENS  -  Air Quality Alert Air Quality Alert        SOUTHERN QUEENS  -  Air Quality Alert Air Quality Alert      

Active alerts

Northern Queens
  Details for Northern Queens Air Quality Alert
Southern Queens
  Details for Southern Queens Air Quality Alert


WXM80 ListenWXM80 Stop

You find our weather info also at:

UK Metoffice

WeatherCloud

Weather Underground

Northeastern Weather Network

AWEKAS

Citizen Weather Observer Program (CWOP)

HAMweather, WeatherForYou, PWS Weather


Weather Underground History page Text

Daily Summary for September 4, 2017 Units:  English    Metric   Both
« Previous Day
Next Day »
Daily Weekly Monthly Yearly Custom
  High: Low: Average:
Temperature: 84.9 °F 61.3 °F 71 °F
Dew Point: 65.1 °F 57.9 °F 61.6 °F
Humidity: 91 % 47 % 74 %
Wind Speed: 6.7 mph 0.0 mph 2.1 mph
Wind Gust: 12.0 mph - -
Wind:- - SW
Pressure: 29.92 in 29.79 in -
Precipitation: 0.00 in    
Historical Graphs
 
 
Tabular Data for September 4, 2017
Time Temperature Dew Point Pressure Wind Wind Speed Wind Gust Humidity Rainfall Rate (Hourly)
00:00 65.0 °F 60.0 °F 29.85 in WSW 0.5 mph 6.9 mph 84 % 0.00 in
00:05 65.0 °F 60.0 °F 29.85 in WSW 3.8 mph 5.8 mph 84 % 0.00 in
00:10 65.0 °F 60.0 °F 29.85 in WSW 4.4 mph 6.9 mph 84 % 0.00 in
00:15 65.0 °F 60.0 °F 29.85 in West 0.5 mph 3.0 mph 84 % 0.00 in
00:21 64.9 °F 59.9 °F 29.85 in WSW 1.0 mph 6.0 mph 84 % 0.00 in
00:26 64.9 °F 59.9 °F 29.85 in WSW 2.3 mph 4.0 mph 84 % 0.00 in
00:31 64.8 °F 59.9 °F 29.85 in WSW 2.0 mph 4.0 mph 84 % 0.00 in
00:35 64.7 °F 59.8 °F 29.85 in WSW 2.0 mph 7.0 mph 84 % 0.00 in
00:41 64.7 °F 59.8 °F 29.85 in West 1.0 mph 4.0 mph 84 % 0.00 in
00:46 64.6 °F 59.7 °F 29.85 in WSW 1.0 mph 7.0 mph 84 % 0.00 in
00:51 64.5 °F 59.6 °F 29.85 in WSW 3.0 mph 6.0 mph 84 % 0.00 in
00:56 64.4 °F 59.5 °F 29.86 in WSW 1.0 mph 6.0 mph 84 % 0.00 in
01:01 64.4 °F 59.5 °F 29.85 in WSW 3.3 mph 4.6 mph 84 % 0.00 in
01:06 64.3 °F 59.4 °F 29.86 in SW 2.0 mph 12.0 mph 84 % 0.00 in
01:11 64.2 °F 59.3 °F 29.86 in WSW 3.0 mph 8.0 mph 84 % 0.00 in
01:16 64.2 °F 59.3 °F 29.86 in WSW 3.0 mph 12.0 mph 84 % 0.00 in
01:20 64.2 °F 59.3 °F 29.86 in WSW 2.0 mph 7.0 mph 84 % 0.00 in
01:25 64.1 °F 59.2 °F 29.86 in SW 2.2 mph 4.0 mph 84 % 0.00 in
01:30 64.1 °F 59.2 °F 29.86 in WSW 3.2 mph 5.0 mph 84 % 0.00 in
01:35 64.1 °F 59.2 °F 29.86 in West 1.9 mph 3.5 mph 84 % 0.00 in
01:40 64.1 °F 59.2 °F 29.86 in WSW 3.6 mph 6.0 mph 84 % 0.00 in
01:46 64.0 °F 59.1 °F 29.86 in WSW 1.0 mph 7.0 mph 84 % 0.00 in
01:51 64.0 °F 59.1 °F 29.86 in WSW 2.0 mph 7.0 mph 84 % 0.00 in
01:56 63.9 °F 59.0 °F 29.86 in SW 1.4 mph 3.5 mph 84 % 0.00 in
02:01 63.9 °F 59.3 °F 29.85 in WSW 3.8 mph 3.8 mph 85 % 0.00 in
02:06 63.8 °F 59.2 °F 29.85 in SW 2.8 mph 8.0 mph 85 % 0.00 in
02:11 63.8 °F 59.2 °F 29.85 in West 3.5 mph 7.0 mph 85 % 0.00 in
02:16 63.7 °F 59.1 °F 29.86 in WSW 4.2 mph 6.0 mph 85 % 0.00 in
02:21 63.7 °F 59.1 °F 29.86 in West 3.5 mph 8.1 mph 85 % 0.00 in
02:26 63.6 °F 59.0 °F 29.86 in WSW 3.5 mph 5.8 mph 85 % 0.00 in
02:31 63.6 °F 59.0 °F 29.86 in SW 2.8 mph 6.9 mph 85 % 0.00 in
02:36 63.6 °F 59.0 °F 29.86 in SSW 3.2 mph 6.9 mph 85 % 0.00 in
02:41 63.5 °F 58.9 °F 29.85 in West 2.6 mph 6.9 mph 85 % 0.00 in
02:46 63.5 °F 58.9 °F 29.86 in WSW 2.3 mph 6.0 mph 85 % 0.00 in
02:51 63.5 °F 58.9 °F 29.86 in WSW 4.5 mph 9.2 mph 85 % 0.00 in
02:56 63.4 °F 58.8 °F 29.86 in SW 3.0 mph 6.0 mph 85 % 0.00 in
03:01 63.4 °F 58.8 °F 29.86 in WSW 4.1 mph 6.9 mph 85 % 0.00 in
03:06 63.4 °F 58.8 °F 29.86 in SW 2.5 mph 5.8 mph 85 % 0.00 in
03:11 63.4 °F 59.1 °F 29.86 in SW 3.4 mph 5.8 mph 86 % 0.00 in
03:16 63.3 °F 59.0 °F 29.86 in WSW 4.2 mph 9.0 mph 86 % 0.00 in
03:21 63.3 °F 59.0 °F 29.86 in WSW 3.8 mph 8.1 mph 86 % 0.00 in
03:26 63.2 °F 58.9 °F 29.86 in South 4.1 mph 5.8 mph 86 % 0.00 in
03:31 63.2 °F 58.6 °F 29.86 in WSW 1.1 mph 3.5 mph 85 % 0.00 in
03:36 63.1 °F 58.5 °F 29.86 in SW 5.1 mph 9.0 mph 85 % 0.00 in
03:42 63.1 °F 58.5 °F 29.86 in WSW 5.1 mph 8.1 mph 85 % 0.00 in
03:47 63.0 °F 58.4 °F 29.86 in SW 3.2 mph 10.4 mph 85 % 0.00 in
03:52 63.0 °F 58.7 °F 29.86 in WSW 2.4 mph 3.5 mph 86 % 0.00 in
03:57 63.0 °F 58.7 °F 29.86 in WSW 4.2 mph 8.1 mph 86 % 0.00 in
04:02 63.0 °F 58.7 °F 29.86 in West 1.7 mph 10.4 mph 86 % 0.00 in
04:07 62.9 °F 58.6 °F 29.86 in WSW 3.8 mph 6.9 mph 86 % 0.00 in
04:12 63.0 °F 59.1 °F 29.87 in SW 1.7 mph 4.6 mph 87 % 0.00 in
04:17 62.9 °F 59.0 °F 29.87 in WSW 4.8 mph 8.1 mph 87 % 0.00 in
04:22 62.9 °F 59.0 °F 29.87 in West 1.9 mph 8.1 mph 87 % 0.00 in
04:27 63.0 °F 59.4 °F 29.87 in SW 1.9 mph 2.3 mph 88 % 0.00 in
04:32 63.0 °F 59.4 °F 29.87 in WNW 2.2 mph 6.9 mph 88 % 0.00 in
04:37 63.0 °F 59.4 °F 29.87 in WNW 4.1 mph 10.4 mph 88 % 0.00 in
04:42 62.9 °F 59.3 °F 29.87 in WSW 0.8 mph 6.9 mph 88 % 0.00 in
04:43 62.9 °F 59.3 °F 29.87 in WSW 2.1 mph 3.5 mph 88 % 0.00 in
04:48 62.9 °F 59.3 °F 29.87 in SW 2.4 mph 4.0 mph 88 % 0.00 in
04:53 62.9 °F 59.0 °F 29.88 in WSW 2.6 mph 4.6 mph 87 % 0.00 in
04:58 62.8 °F 58.9 °F 29.88 in WSW 2.2 mph 5.8 mph 87 % 0.00 in
05:03 62.7 °F 58.8 °F 29.88 in SW 1.6 mph 3.5 mph 87 % 0.00 in
05:08 62.6 °F 58.7 °F 29.88 in SSE 1.6 mph 3.5 mph 87 % 0.00 in
05:13 62.5 °F 58.6 °F 29.88 in WSW 2.2 mph 6.0 mph 87 % 0.00 in
05:16 62.5 °F 58.6 °F 29.88 in SW 3.2 mph 4.6 mph 87 % 0.00 in
05:21 62.3 °F 58.4 °F 29.88 in WSW 2.6 mph 5.0 mph 87 % 0.00 in
05:26 62.2 °F 58.3 °F 29.88 in WSW 0.9 mph 3.5 mph 87 % 0.00 in
05:31 62.2 °F 58.3 °F 29.88 in WNW 2.2 mph 4.6 mph 87 % 0.00 in
05:36 62.1 °F 58.2 °F 29.89 in WSW 1.4 mph 3.5 mph 87 % 0.00 in
05:41 62.0 °F 58.1 °F 29.89 in SW 2.4 mph 6.9 mph 87 % 0.00 in
05:46 61.9 °F 58.0 °F 29.89 in SSW 2.2 mph 5.8 mph 87 % 0.00 in
05:51 61.8 °F 57.9 °F 29.89 in West 0.3 mph 1.2 mph 87 % 0.00 in
05:56 61.8 °F 58.2 °F 29.89 in West 1.5 mph 5.0 mph 88 % 0.00 in
06:01 61.7 °F 58.1 °F 29.89 in WSW 1.9 mph 5.0 mph 88 % 0.00 in
06:06 61.6 °F 58.0 °F 29.90 in WSW 0.7 mph 2.3 mph 88 % 0.00 in
06:11 61.6 °F 58.0 °F 29.89 in WSW 0.5 mph 2.3 mph 88 % 0.00 in
06:16 61.6 °F 58.0 °F 29.90 in WSW 4.1 mph 5.8 mph 88 % 0.00 in
06:21 61.6 °F 58.3 °F 29.90 in WSW 0.9 mph 4.6 mph 89 % 0.00 in
06:26 61.6 °F 58.3 °F 29.90 in WSW 2.4 mph 4.6 mph 89 % 0.00 in
06:31 61.6 °F 58.3 °F 29.90 in WSW 1.5 mph 5.8 mph 89 % 0.00 in
06:36 61.6 °F 58.3 °F 29.90 in West 0.4 mph 1.2 mph 89 % 0.00 in
06:41 61.6 °F 58.3 °F 29.90 in WSW 0.7 mph 1.2 mph 89 % 0.00 in
06:46 61.6 °F 58.3 °F 29.90 in WSW 0.5 mph 3.0 mph 89 % 0.00 in
06:51 61.6 °F 58.3 °F 29.91 in Calm     89 % 0.00 in
06:56 61.6 °F 58.3 °F 29.91 in Calm   1.2 mph 89 % 0.00 in
07:01 61.5 °F 58.2 °F 29.91 in Calm     89 % 0.00 in
07:06 61.5 °F 58.2 °F 29.92 in Calm     89 % 0.00 in
07:12 61.4 °F 58.1 °F 29.92 in Calm     89 % 0.00 in
07:17 61.4 °F 58.1 °F 29.91 in Calm     89 % 0.00 in
07:22 61.4 °F 58.1 °F 29.91 in Calm     89 % 0.00 in
07:27 61.3 °F 58.0 °F 29.92 in Calm   1.2 mph 89 % 0.00 in
07:32 61.3 °F 58.3 °F 29.92 in Calm   1.2 mph 90 % 0.00 in
07:37 61.3 °F 58.3 °F 29.92 in SW 0.3 mph 2.0 mph 90 % 0.00 in
07:42 61.3 °F 58.3 °F 29.92 in SW 1.6 mph 3.5 mph 90 % 0.00 in
07:47 61.3 °F 58.3 °F 29.91 in SW 1.3 mph 3.5 mph 90 % 0.00 in
07:52 61.4 °F 58.7 °F 29.92 in West 2.9 mph 4.6 mph 91 % 0.00 in
07:57 61.4 °F 58.7 °F 29.92 in SW 1.3 mph 3.0 mph 91 % 0.00 in
08:02 61.5 °F 58.8 °F 29.92 in WSW 0.8 mph 2.3 mph 91 % 0.00 in
08:07 61.7 °F 59.0 °F 29.91 in SW 1.3 mph 3.5 mph 91 % 0.00 in
08:12 61.8 °F 59.1 °F 29.92 in SW 2.0 mph 9.0 mph 91 % 0.00 in
08:17 62.1 °F 59.4 °F 29.92 in WSW 1.1 mph 2.3 mph 91 % 0.00 in
08:22 62.3 °F 59.3 °F 29.92 in WSW 3.5 mph 6.0 mph 90 % 0.00 in
08:28 62.5 °F 59.5 °F 29.91 in West 1.9 mph 3.5 mph 90 % 0.00 in
08:32 62.8 °F 59.8 °F 29.91 in WNW 2.1 mph 4.6 mph 90 % 0.00 in
08:38 63.0 °F 59.7 °F 29.91 in WSW 3.6 mph 4.6 mph 89 % 0.00 in
08:43 63.3 °F 60.0 °F 29.91 in WSW 2.7 mph 6.0 mph 89 % 0.00 in
08:48 63.6 °F 60.0 °F 29.92 in WSW 3.9 mph 5.8 mph 88 % 0.00 in
08:53 64.0 °F 60.4 °F 29.91 in West 2.6 mph 4.6 mph 88 % 0.00 in
08:58 64.3 °F 60.3 °F 29.91 in WSW 0.7 mph 3.5 mph 87 % 0.00 in
09:03 64.5 °F 60.5 °F 29.92 in SSW 2.1 mph 5.8 mph 87 % 0.00 in
09:08 64.8 °F 60.5 °F 29.91 in West 4.3 mph 6.9 mph 86 % 0.00 in
09:13 65.0 °F 60.4 °F 29.91 in WSW 4.3 mph 6.9 mph 85 % 0.00 in
09:18 65.3 °F 60.7 °F 29.92 in SW 2.3 mph 3.5 mph 85 % 0.00 in
09:23 65.6 °F 61.0 °F 29.91 in West 0.7 mph 2.3 mph 85 % 0.00 in
09:28 65.9 °F 60.9 °F 29.91 in WSW 2.5 mph 4.6 mph 84 % 0.00 in
09:33 66.2 °F 60.9 °F 29.91 in SSW 2.7 mph 6.9 mph 83 % 0.00 in
09:38 66.6 °F 61.3 °F 29.92 in WSW 3.0 mph 3.5 mph 83 % 0.00 in
09:44 67.2 °F 61.5 °F 29.92 in SSW 3.6 mph 4.6 mph 82 % 0.00 in
09:49 67.8 °F 61.8 °F 29.91 in WSW 2.1 mph 4.6 mph 81 % 0.00 in
09:54 68.5 °F 61.7 °F 29.91 in WSW 3.6 mph 6.9 mph 79 % 0.00 in
09:59 69.3 °F 61.8 °F 29.92 in SW 1.5 mph 5.8 mph 77 % 0.00 in
10:04 69.9 °F 62.4 °F 29.92 in SSW 2.8 mph 6.0 mph 77 % 0.00 in
10:09 70.4 °F 62.1 °F 29.92 in West 3.1 mph 6.9 mph 75 % 0.00 in
10:14 70.8 °F 62.5 °F 29.91 in WNW 1.8 mph 3.5 mph 75 % 0.00 in
10:19 71.0 °F 61.9 °F 29.91 in West 3.3 mph 4.6 mph 73 % 0.00 in
10:24 71.2 °F 61.3 °F 29.91 in WSW 2.8 mph 6.9 mph 71 % 0.00 in
10:29 71.3 °F 61.8 °F 29.91 in WNW 0.5 mph 2.3 mph 72 % 0.00 in
10:34 71.4 °F 62.3 °F 29.92 in WSW 1.7 mph 4.6 mph 73 % 0.00 in
10:39 71.5 °F 62.4 °F 29.92 in West 3.7 mph 5.8 mph 73 % 0.00 in
10:44 71.5 °F 61.6 °F 29.92 in WNW 3.9 mph 6.9 mph 71 % 0.00 in
10:49 71.7 °F 61.8 °F 29.92 in WSW 3.0 mph 11.5 mph 71 % 0.00 in
10:54 72.1 °F 62.2 °F 29.92 in SW 4.0 mph 8.1 mph 71 % 0.00 in
10:59 72.6 °F 62.7 °F 29.92 in West 2.6 mph 6.0 mph 71 % 0.00 in
11:04 73.1 °F 63.1 °F 29.92 in West 2.8 mph 6.9 mph 71 % 0.00 in
11:09 73.9 °F 64.3 °F 29.92 in WSW 2.3 mph 5.0 mph 72 % 0.00 in
11:14 74.7 °F 63.4 °F 29.92 in WSW 2.4 mph 3.5 mph 68 % 0.00 in
11:19 75.5 °F 64.2 °F 29.91 in WSW 3.5 mph 4.6 mph 68 % 0.00 in
11:24 76.2 °F 62.7 °F 29.91 in WSW 3.3 mph 6.9 mph 63 % 0.00 in
11:29 76.9 °F 63.8 °F 29.91 in SW 3.8 mph 8.0 mph 64 % 0.00 in
11:34 77.6 °F 64.9 °F 29.91 in WNW 0.9 mph 3.5 mph 65 % 0.00 in
11:39 78.2 °F 62.7 °F 29.91 in WSW 4.7 mph 10.4 mph 59 % 0.00 in
11:44 78.9 °F 63.4 °F 29.91 in SW 2.5 mph 6.9 mph 59 % 0.00 in
11:49 79.4 °F 63.3 °F 29.91 in WNW 3.4 mph 5.8 mph 58 % 0.00 in
11:54 79.9 °F 63.8 °F 29.91 in West 3.7 mph 5.8 mph 58 % 0.00 in
11:59 80.4 °F 64.8 °F 29.90 in West 0.8 mph 4.6 mph 59 % 0.00 in
12:04 81.0 °F 63.8 °F 29.91 in WNW 4.3 mph 4.3 mph 56 % 0.00 in
12:09 81.4 °F 63.2 °F 29.91 in NW 5.4 mph 8.1 mph 54 % 0.00 in
12:14 81.6 °F 62.8 °F 29.90 in SW 1.5 mph 4.6 mph 53 % 0.00 in
12:19 81.9 °F 63.1 °F 29.91 in WSW 5.4 mph 10.4 mph 53 % 0.00 in
12:24 82.3 °F 62.9 °F 29.90 in WNW 2.5 mph 9.2 mph 52 % 0.00 in
12:25 82.4 °F 62.5 °F 29.90 in WSW 1.7 mph 5.0 mph 51 % 0.00 in
12:30 82.6 °F 61.5 °F 29.90 in NW 4.0 mph 6.9 mph 49 % 0.00 in
12:35 82.8 °F 62.3 °F 29.90 in WSW 3.6 mph 6.9 mph 50 % 0.00 in
12:40 83.2 °F 64.3 °F 29.90 in WSW 0.6 mph 2.3 mph 53 % 0.00 in
12:45 83.3 °F 62.7 °F 29.90 in West 4.6 mph 8.1 mph 50 % 0.00 in
12:50 83.6 °F 62.4 °F 29.90 in West 2.8 mph 5.8 mph 49 % 0.00 in
12:55 84.0 °F 65.0 °F 29.89 in West 2.8 mph 3.5 mph 53 % 0.00 in
13:00 84.0 °F 62.2 °F 29.89 in WSW 4.5 mph 6.9 mph 48 % 0.00 in
13:05 84.2 °F 63.0 °F 29.89 in South 3.4 mph 5.8 mph 49 % 0.00 in
13:10 84.4 °F 63.2 °F 29.89 in NW 0.3 mph 2.3 mph 49 % 0.00 in
13:15 84.5 °F 63.2 °F 29.89 in SE 3.1 mph 5.8 mph 49 % 0.00 in
13:20 84.7 °F 64.6 °F 29.89 in SSW 2.3 mph 5.8 mph 51 % 0.00 in
13:25 84.8 °F 63.5 °F 29.88 in WSW 2.4 mph 3.5 mph 49 % 0.00 in
13:30 84.9 °F 63.6 °F 29.89 in West 6.7 mph 11.5 mph 49 % 0.00 in
13:35 84.9 °F 62.4 °F 29.88 in SW 2.5 mph 5.0 mph 47 % 0.00 in
13:40 84.9 °F 63.0 °F 29.88 in West 4.1 mph 10.0 mph 48 % 0.00 in
13:45 84.8 °F 62.9 °F 29.88 in SSW 3.8 mph 9.2 mph 48 % 0.00 in
13:50 84.8 °F 62.3 °F 29.88 in West 4.1 mph 8.1 mph 47 % 0.00 in
13:55 84.6 °F 63.3 °F 29.88 in SW 4.5 mph 5.8 mph 49 % 0.00 in
14:00 84.6 °F 63.9 °F 29.88 in SSW 0.1 mph 1.2 mph 50 % 0.00 in
14:06 84.6 °F 62.7 °F 29.87 in West 2.9 mph 6.9 mph 48 % 0.00 in
14:11 84.6 °F 62.7 °F 29.88 in SW 1.7 mph 5.0 mph 48 % 0.00 in
14:16 84.5 °F 62.7 °F 29.88 in SSW 6.7 mph 7.0 mph 48 % 0.00 in
14:21 84.3 °F 63.1 °F 29.87 in SW 1.0 mph 6.9 mph 49 % 0.00 in
14:26 84.3 °F 63.1 °F 29.87 in SW 3.0 mph 7.0 mph 49 % 0.00 in
14:31 84.2 °F 63.6 °F 29.87 in SW 3.0 mph 8.0 mph 50 % 0.00 in
14:36 84.2 °F 62.3 °F 29.87 in Calm   4.0 mph 48 % 0.00 in
14:41 83.9 °F 62.7 °F 29.86 in SSW 3.0 mph 9.0 mph 49 % 0.00 in
14:46 84.0 °F 63.9 °F 29.86 in SW 2.0 mph 6.0 mph 51 % 0.00 in
14:51 84.1 °F 62.9 °F 29.86 in WSW 2.0 mph 8.0 mph 49 % 0.00 in
14:56 84.2 °F 63.5 °F 29.86 in WSW 2.0 mph 6.0 mph 50 % 0.00 in
15:01 84.3 °F 62.5 °F 29.86 in SW 1.8 mph 9.2 mph 48 % 0.00 in
15:06 84.3 °F 62.5 °F 29.86 in SW 3.7 mph 10.4 mph 48 % 0.00 in
15:11 84.3 °F 64.2 °F 29.85 in SSW 0.6 mph 3.5 mph 51 % 0.00 in
15:14 84.2 °F 63.5 °F 29.85 in SSW 1.9 mph 5.8 mph 50 % 0.00 in
15:19 83.8 °F 62.0 °F 29.85 in South 3.7 mph 8.1 mph 48 % 0.00 in
15:24 83.3 °F 63.3 °F 29.85 in SSE 1.4 mph 4.6 mph 51 % 0.00 in
15:29 83.0 °F 63.0 °F 29.85 in SSW 2.4 mph 5.8 mph 51 % 0.00 in
15:33 83.0 °F 63.6 °F 29.85 in SSE 3.2 mph 9.2 mph 52 % 0.00 in
15:38 82.9 °F 63.5 °F 29.85 in SW 1.0 mph 3.5 mph 52 % 0.00 in
15:43 82.6 °F 63.2 °F 29.85 in SE 1.6 mph 3.5 mph 52 % 0.00 in
15:48 82.4 °F 63.0 °F 29.84 in SSW 5.6 mph 6.9 mph 52 % 0.00 in
15:53 82.4 °F 63.0 °F 29.84 in SSW 0.6 mph 4.0 mph 52 % 0.00 in
15:58 82.3 °F 62.4 °F 29.84 in South 4.4 mph 6.0 mph 51 % 0.00 in
16:03 82.1 °F 62.7 °F 29.84 in SW 6.2 mph 10.4 mph 52 % 0.00 in
16:08 82.0 °F 62.6 °F 29.84 in SSW 1.3 mph 5.8 mph 52 % 0.00 in
16:13 81.9 °F 63.1 °F 29.84 in WSW 1.7 mph 5.8 mph 53 % 0.00 in
16:18 81.8 °F 63.0 °F 29.84 in South 2.0 mph 2.3 mph 53 % 0.00 in
16:23 81.4 °F 63.2 °F 29.84 in SW 1.4 mph 4.0 mph 54 % 0.00 in
16:28 81.3 °F 62.5 °F 29.83 in SE 2.0 mph 4.6 mph 53 % 0.00 in
16:33 81.0 °F 62.3 °F 29.84 in SW 3.0 mph 8.1 mph 53 % 0.00 in
16:38 80.7 °F 63.5 °F 29.83 in SE 2.5 mph 5.8 mph 56 % 0.00 in
16:44 80.1 °F 62.0 °F 29.83 in South 3.8 mph 6.0 mph 54 % 0.00 in
16:49 79.7 °F 61.6 °F 29.83 in SSE 2.6 mph 6.9 mph 54 % 0.00 in
16:54 79.4 °F 62.3 °F 29.83 in SSW 1.3 mph 6.9 mph 56 % 0.00 in
16:59 79.3 °F 61.7 °F 29.83 in SW 0.4 mph 2.3 mph 55 % 0.00 in
17:04 79.2 °F 62.1 °F 29.83 in South 1.7 mph 9.2 mph 56 % 0.00 in
17:09 79.0 °F 62.0 °F 29.83 in SE 1.2 mph 4.6 mph 56 % 0.00 in
17:14 78.9 °F 61.9 °F 29.82 in South 4.3 mph 8.1 mph 56 % 0.00 in
17:19 78.6 °F 61.6 °F 29.83 in South 3.2 mph 4.6 mph 56 % 0.00 in
17:24 78.4 °F 61.9 °F 29.83 in South 1.5 mph 3.5 mph 57 % 0.00 in
17:29 78.2 °F 62.2 °F 29.82 in SSE 3.6 mph 10.4 mph 58 % 0.00 in
17:34 77.9 °F 62.4 °F 29.82 in SE 1.0 mph 3.0 mph 59 % 0.00 in
17:39 77.6 °F 62.1 °F 29.82 in South 0.7 mph 3.5 mph 59 % 0.00 in
17:44 77.4 °F 61.9 °F 29.82 in SSE 1.0 mph 5.0 mph 59 % 0.00 in
17:49 77.2 °F 62.2 °F 29.82 in South 3.4 mph 5.0 mph 60 % 0.00 in
17:54 77.0 °F 62.5 °F 29.82 in South 0.8 mph 2.3 mph 61 % 0.00 in
17:59 76.7 °F 62.2 °F 29.81 in South 3.0 mph 5.8 mph 61 % 0.00 in
18:04 76.4 °F 62.0 °F 29.81 in SE 2.6 mph 4.6 mph 61 % 0.00 in
18:09 76.3 °F 62.3 °F 29.81 in SSW 1.6 mph 3.5 mph 62 % 0.00 in
18:14 76.1 °F 62.6 °F 29.81 in SSW 1.0 mph 3.5 mph 63 % 0.00 in
18:19 75.9 °F 62.8 °F 29.81 in SE 0.9 mph 3.5 mph 64 % 0.00 in
18:24 75.6 °F 62.6 °F 29.81 in Calm   1.2 mph 64 % 0.00 in
18:29 75.5 °F 62.9 °F 29.82 in SSE 2.2 mph 5.0 mph 65 % 0.00 in
18:34 75.3 °F 63.2 °F 29.82 in SSE 1.1 mph 3.0 mph 66 % 0.00 in
18:39 75.1 °F 63.4 °F 29.81 in SSE 2.3 mph 6.9 mph 67 % 0.00 in
18:44 74.9 °F 63.6 °F 29.81 in South 2.0 mph 4.6 mph 68 % 0.00 in
18:49 74.6 °F 63.8 °F 29.81 in SSE 1.6 mph 4.6 mph 69 % 0.00 in
18:54 74.5 °F 64.1 °F 29.81 in SSW 1.7 mph 3.5 mph 70 % 0.00 in
18:59 74.3 °F 63.9 °F 29.81 in SW 2.8 mph 7.0 mph 70 % 0.00 in
19:04 74.1 °F 64.1 °F 29.81 in SSW 1.0 mph 3.5 mph 71 % 0.00 in
19:09 73.9 °F 64.3 °F 29.81 in South 2.2 mph 3.5 mph 72 % 0.00 in
19:14 73.7 °F 64.1 °F 29.81 in SSW 0.8 mph 3.5 mph 72 % 0.00 in
19:19 73.5 °F 64.3 °F 29.81 in SW 1.9 mph 4.6 mph 73 % 0.00 in
19:24 73.2 °F 64.4 °F 29.81 in SW 0.6 mph 2.3 mph 74 % 0.00 in
19:29 73.0 °F 64.2 °F 29.81 in SSW 2.0 mph 3.5 mph 74 % 0.00 in
19:34 72.8 °F 64.4 °F 29.81 in SSW 1.7 mph 3.5 mph 75 % 0.00 in
19:39 72.7 °F 64.7 °F 29.81 in SSW 1.6 mph 3.0 mph 76 % 0.00 in
19:44 72.5 °F 64.9 °F 29.81 in South 1.3 mph 3.5 mph 77 % 0.00 in
19:49 72.3 °F 64.7 °F 29.82 in SSE 1.2 mph 3.5 mph 77 % 0.00 in
19:54 72.1 °F 64.9 °F 29.82 in South 0.7 mph 5.8 mph 78 % 0.00 in
19:59 71.9 °F 65.0 °F 29.81 in South 0.1 mph 1.2 mph 79 % 0.00 in
20:04 71.8 °F 64.9 °F 29.81 in South 0.8 mph 3.5 mph 79 % 0.00 in
20:09 71.6 °F 64.7 °F 29.81 in SSE 0.3 mph 1.2 mph 79 % 0.00 in
20:15 71.5 °F 65.0 °F 29.81 in SSE 0.5 mph 1.2 mph 80 % 0.00 in
20:20 71.3 °F 64.8 °F 29.81 in SSE 0.7 mph 2.3 mph 80 % 0.00 in
20:25 71.2 °F 65.1 °F 29.81 in SSW 0.8 mph 4.0 mph 81 % 0.00 in
20:30 71.1 °F 65.0 °F 29.82 in SSW 0.8 mph 3.5 mph 81 % 0.00 in
20:35 71.1 °F 64.6 °F 29.81 in SW 0.8 mph 2.0 mph 80 % 0.00 in
20:40 70.9 °F 64.8 °F 29.81 in South 1.5 mph 3.5 mph 81 % 0.00 in
20:45 70.9 °F 64.8 °F 29.82 in SSW 1.8 mph 6.9 mph 81 % 0.00 in
20:50 70.8 °F 64.3 °F 29.81 in SSW 0.9 mph 2.3 mph 80 % 0.00 in
20:55 70.7 °F 64.6 °F 29.81 in SSW 0.4 mph 3.5 mph 81 % 0.00 in
21:00 70.6 °F 64.5 °F 29.82 in Calm   2.3 mph 81 % 0.00 in
21:05 70.5 °F 64.4 °F 29.82 in SSW 0.3 mph 3.5 mph 81 % 0.00 in
21:10 70.5 °F 64.4 °F 29.81 in SSE 0.4 mph 2.3 mph 81 % 0.00 in
21:15 70.4 °F 64.3 °F 29.81 in SE 0.5 mph 3.5 mph 81 % 0.00 in
21:20 70.4 °F 64.3 °F 29.81 in SE 0.4 mph 3.5 mph 81 % 0.00 in
21:25 70.3 °F 64.2 °F 29.81 in SSE 3.3 mph 4.6 mph 81 % 0.00 in
21:30 70.3 °F 63.8 °F 29.81 in SSE 0.1 mph 1.2 mph 80 % 0.00 in
21:35 70.3 °F 63.8 °F 29.81 in WSW 2.4 mph 4.6 mph 80 % 0.00 in
21:40 70.3 °F 63.8 °F 29.81 in SSW 1.3 mph 3.5 mph 80 % 0.00 in
21:45 70.2 °F 63.7 °F 29.81 in South 1.1 mph 3.5 mph 80 % 0.00 in
21:50 70.1 °F 63.6 °F 29.81 in SW 1.4 mph 4.0 mph 80 % 0.00 in
21:55 70.1 °F 64.0 °F 29.81 in South 0.3 mph 3.0 mph 81 % 0.00 in
22:00 70.1 °F 64.0 °F 29.81 in SSW 1.2 mph 2.3 mph 81 % 0.00 in
22:05 70.0 °F 63.9 °F 29.81 in SW 1.0 mph 3.5 mph 81 % 0.00 in
22:10 70.0 °F 63.9 °F 29.81 in South 0.7 mph 2.3 mph 81 % 0.00 in
22:15 69.9 °F 64.2 °F 29.80 in SSW 0.9 mph 3.5 mph 82 % 0.00 in
22:20 69.9 °F 64.2 °F 29.80 in SSE 1.0 mph 2.3 mph 82 % 0.00 in
22:25 69.9 °F 64.2 °F 29.81 in South 0.6 mph 3.5 mph 82 % 0.00 in
22:31 69.8 °F 64.4 °F 29.81 in South 1.0 mph 4.0 mph 83 % 0.00 in
22:36 69.8 °F 64.4 °F 29.80 in South 1.0 mph 3.0 mph 83 % 0.00 in
22:41 69.7 °F 64.3 °F 29.80 in South 1.0 mph 4.0 mph 83 % 0.00 in
22:46 69.7 °F 64.3 °F 29.80 in Calm   4.0 mph 83 % 0.00 in
22:51 69.7 °F 64.6 °F 29.81 in Calm   4.0 mph 84 % 0.00 in
22:56 69.6 °F 64.6 °F 29.80 in South 1.0 mph 3.0 mph 84 % 0.00 in
23:01 69.6 °F 64.5 °F 29.80 in SW 1.1 mph 2.3 mph 84 % 0.00 in
23:06 69.5 °F 64.5 °F 29.80 in SSW 1.1 mph 2.3 mph 84 % 0.00 in
23:11 69.5 °F 64.8 °F 29.80 in SSE 0.7 mph 1.2 mph 85 % 0.00 in
23:16 69.4 °F 64.7 °F 29.80 in SW 1.1 mph 3.5 mph 85 % 0.00 in
23:21 69.3 °F 64.6 °F 29.80 in SSW 0.3 mph 2.3 mph 85 % 0.00 in
23:22 69.3 °F 64.6 °F 29.80 in SSW 0.7 mph 3.0 mph 85 % 0.00 in
23:24 69.3 °F 64.6 °F 29.80 in SSW 2.1 mph 4.6 mph 85 % 0.00 in
23:29 69.2 °F 64.8 °F 29.80 in SSW 0.9 mph 4.0 mph 86 % 0.00 in
23:34 69.2 °F 64.8 °F 29.80 in South 1.1 mph 3.5 mph 86 % 0.00 in
23:39 69.2 °F 64.8 °F 29.79 in SSE 1.7 mph 4.6 mph 86 % 0.00 in
23:44 69.1 °F 64.7 °F 29.80 in South 0.5 mph 2.3 mph 86 % 0.00 in
23:49 69.1 °F 64.7 °F 29.80 in SSW 0.2 mph 3.5 mph 86 % 0.00 in
23:54 69.1 °F 64.7 °F 29.80 in South 0.1 mph 3.5 mph 86 % 0.00 in
Crab Meadow Weather
Compliments of Weather Underground - 3 mb

Script developed by  Jim McMurry - jmcmurry@mwt.net Adapted for the template by  Wim van der Kuil - Leuven-Template.eu

Astronomy: A year on Venus is 225 days.